• en France
  • Liste des pays
  • À 7 jours
  • Température de l'eau
  • Carte satellitaire
  • Carte météo
  • Widgets météo
  • user-avatar
    Se connecter

    Météo par heure à Newcastle

    Ce jour, 16 Octobre, Mardi

    Heure Température Précipitation Vent Pression Humidité
    00:00 +16°C° 0.1 mm 5 m/s 766 mmHg 96%
    01:00 +16°C° 0.1 mm 5 m/s 766 mmHg 95%
    02:00 +16°C° 0.1 mm 5 m/s 766 mmHg 95%
    03:00 +16°C° 0.1 mm 5 m/s 766 mmHg 95%
    04:00 +17°C° 0 mm 4 m/s 765 mmHg 97%
    05:00 +18°C° 0.2 mm 4 m/s 766 mmHg 93%
    06:00 +19°C° 0.2 mm 5 m/s 766 mmHg 89%
    07:00 +20°C° 0.2 mm 5 m/s 766 mmHg 86%
    08:00 +21°C° 0.2 mm 5 m/s 766 mmHg 81%
    09:00 +22°C° 0.2 mm 5 m/s 766 mmHg 76%
    10:00 +25°C° 0 mm 5 m/s 766 mmHg 67%
    11:00 +25°C° 0.1 mm 5 m/s 765 mmHg 68%
    12:00 +24°C° 0.1 mm 6 m/s 765 mmHg 68%
    13:00 +24°C° 0.1 mm 6 m/s 764 mmHg 69%
    14:00 +24°C° 0 mm 6 m/s 764 mmHg 68%
    15:00 +24°C° 0 mm 6 m/s 763 mmHg 67%
    16:00 +24°C° 0 mm 6 m/s 763 mmHg 66%
    17:00 +22°C° 0 mm 6 m/s 763 mmHg 73%
    18:00 +21°C° 0 mm 6 m/s 763 mmHg 79%
    19:00 +19°C° 0 mm 5 m/s 764 mmHg 86%
    20:00 +19°C° 0 mm 5 m/s 764 mmHg 89%
    21:00 +17°C° 0 mm 5 m/s 764 mmHg 91%
    22:00 +17°C° 0 mm 5 m/s 764 mmHg 93%
    23:00 +17°C° 0 mm 5 m/s 763 mmHg 93%

    Demain, 17 Octobre, Mercredi

    Heure Température Précipitation Vent Pression Humidité
    00:00 +17°C° 0 mm 5 m/s 763 mmHg 93%
    01:00 +17°C° 0 mm 5 m/s 762 mmHg 93%
    02:00 +17°C° 0 mm 5 m/s 762 mmHg 94%
    03:00 +17°C° 0 mm 5 m/s 762 mmHg 95%
    04:00 +18°C° 0 mm 4 m/s 762 mmHg 96%
    05:00 +19°C° 0 mm 4 m/s 762 mmHg 93%
    06:00 +20°C° 0 mm 5 m/s 763 mmHg 89%
    07:00 +21°C° 0 mm 5 m/s 763 mmHg 85%
    08:00 +22°C° 0 mm 5 m/s 763 mmHg 79%
    09:00 +25°C° 0 mm 5 m/s 762 mmHg 73%
    10:00 +26°C° 0 mm 5 m/s 762 mmHg 66%
    11:00 +26°C° 0.8 mm 5 m/s 762 mmHg 72%
    12:00 +25°C° 0.8 mm 5 m/s 761 mmHg 78%
    13:00 +25°C° 0.8 mm 5 m/s 761 mmHg 84%
    14:00 +23°C° 0.7 mm 6 m/s 761 mmHg 87%
    15:00 +22°C° 0.7 mm 6 m/s 760 mmHg 90%
    16:00 +21°C° 0.7 mm 6 m/s 760 mmHg 93%
    17:00 +21°C° 0 mm 6 m/s 760 mmHg 94%
    18:00 +20°C° 0 mm 6 m/s 760 mmHg 95%
    19:00 +20°C° 0 mm 6 m/s 761 mmHg 95%
    20:00 +19°C° 0.1 mm 6 m/s 761 mmHg 96%
    21:00 +19°C° 0.1 mm 6 m/s 761 mmHg 96%
    22:00 +19°C° 0.1 mm 5 m/s 761 mmHg 96%
    23:00 +19°C° 0 mm 6 m/s 761 mmHg 95%

    Après-demain, 18 Octobre, Jeudi

    Heure Température Précipitation Vent Pression Humidité
    00:00 +19°C° 0 mm 6 m/s 761 mmHg 94%
    01:00 +19°C° 0 mm 6 m/s 761 mmHg 93%
    02:00 +17°C° 0.4 mm 6 m/s 761 mmHg 95%
    03:00 +17°C° 0.4 mm 5 m/s 760 mmHg 96%
    04:00 +17°C° 0.4 mm 5 m/s 760 mmHg 97%
    05:00 +17°C° 0.4 mm 5 m/s 761 mmHg 97%
    06:00 +19°C° 0.4 mm 4 m/s 761 mmHg 96%
    07:00 +19°C° 0.4 mm 4 m/s 761 mmHg 95%
    08:00 +21°C° 0.4 mm 4 m/s 761 mmHg 88%
    09:00 +23°C° 0.4 mm 4 m/s 761 mmHg 81%
    10:00 +26°C° 0.4 mm 4 m/s 761 mmHg 74%
    11:00 +25°C° 1.1 mm 4 m/s 761 mmHg 77%
    12:00 +25°C° 1.1 mm 5 m/s 761 mmHg 81%
    13:00 +25°C° 1.1 mm 5 m/s 760 mmHg 85%
    14:00 +25°C° 1.2 mm 5 m/s 760 mmHg 83%
    15:00 +25°C° 1.2 mm 5 m/s 760 mmHg 81%
    16:00 +24°C° 1.2 mm 6 m/s 760 mmHg 79%
    17:00 +23°C° 0.8 mm 6 m/s 760 mmHg 84%
    18:00 +21°C° 0.8 mm 6 m/s 761 mmHg 90%
    19:00 +20°C° 0.8 mm 5 m/s 761 mmHg 96%
    20:00 +19°C° 0.2 mm 5 m/s 761 mmHg 96%
    21:00 +19°C° 0.2 mm 5 m/s 761 mmHg 97%
    22:00 +19°C° 0.2 mm 5 m/s 762 mmHg 98%
    23:00 +17°C° 0 mm 5 m/s 761 mmHg 98%

    19 Octobre, Vendredi

    Heure Température Précipitation Vent Pression Humidité
    00:00 +17°C° 0 mm 5 m/s 761 mmHg 98%
    01:00 +18°C° 0 mm 4 m/s 761 mmHg 98%
    02:00 +17°C° 0 mm 4 m/s 761 mmHg 98%
    03:00 +17°C° 0 mm 3 m/s 761 mmHg 98%
    04:00 +17°C° 0 mm 3 m/s 761 mmHg 98%
    05:00 +18°C° 0 mm 3 m/s 761 mmHg 95%
    06:00 +19°C° 0 mm 2 m/s 761 mmHg 92%
    07:00 +20°C° 0 mm 2 m/s 762 mmHg 90%
    08:00 +23°C° 0 mm 2 m/s 762 mmHg 78%
    09:00 +26°C° 0 mm 2 m/s 762 mmHg 66%
    10:00 +29°C° 0 mm 1 m/s 761 mmHg 54%
    11:00 +30°C° 0 mm 2 m/s 761 mmHg 49%
    12:00 +31°C° 0 mm 2 m/s 760 mmHg 44%
    13:00 +33°C° 0 mm 3 m/s 760 mmHg 39%
    14:00 +32°C° 0 mm 4 m/s 759 mmHg 43%
    15:00 +32°C° 0 mm 4 m/s 759 mmHg 46%
    16:00 +30°C° 0 mm 5 m/s 758 mmHg 50%
    17:00 +28°C° 0 mm 5 m/s 759 mmHg 59%
    18:00 +26°C° 0 mm 5 m/s 759 mmHg 68%
    19:00 +23°C° 0 mm 5 m/s 760 mmHg 77%
    20:00 +22°C° 0 mm 5 m/s 760 mmHg 81%
    21:00 +21°C° 0 mm 5 m/s 760 mmHg 86%
    22:00 +20°C° 0 mm 4 m/s 761 mmHg 90%
    23:00 +20°C° 0 mm 4 m/s 760 mmHg 90%

    20 Octobre, Samedi

    Heure Température Précipitation Vent Pression Humidité
    00:00 +20°C° 0 mm 3 m/s 760 mmHg 89%
    01:00 +19°C° 0 mm 3 m/s 759 mmHg 89%
    02:00 +19°C° 0 mm 3 m/s 759 mmHg 86%
    03:00 +19°C° 0 mm 3 m/s 759 mmHg 84%
    04:00 +18°C° 0 mm 2 m/s 759 mmHg 81%
    05:00 +20°C° 0 mm 3 m/s 759 mmHg 77%
    06:00 +21°C° 0 mm 3 m/s 759 mmHg 73%
    07:00 +24°C° 0 mm 3 m/s 760 mmHg 69%
    08:00 +26°C° 0 mm 3 m/s 759 mmHg 60%
    09:00 +29°C° 0 mm 3 m/s 759 mmHg 51%
    10:00 +33°C° 0 mm 3 m/s 759 mmHg 42%
    11:00 +34°C° 0 mm 3 m/s 759 mmHg 39%
    12:00 +35°C° 0 mm 3 m/s 758 mmHg 37%
    13:00 +36°C° 0 mm 3 m/s 758 mmHg 34%
    14:00 +32°C° 2.4 mm 4 m/s 758 mmHg 49%
    15:00 +28°C° 2.4 mm 5 m/s 758 mmHg 64%
    16:00 +23°C° 2.4 mm 5 m/s 758 mmHg 80%
    17:00 +22°C° 1.6 mm 5 m/s 759 mmHg 85%
    18:00 +20°C° 1.6 mm 5 m/s 760 mmHg 90%
    19:00 +17°C° 1.6 mm 5 m/s 761 mmHg 95%
    20:00 +17°C° 0.7 mm 5 m/s 761 mmHg 96%
    21:00 +19°C° 0.7 mm 4 m/s 761 mmHg 97%
    22:00 +19°C° 0.7 mm 4 m/s 762 mmHg 98%
    23:00 +18°C° 1.6 mm 4 m/s 761 mmHg 98%

    21 Octobre, Dimanche

    Heure Température Précipitation Vent Pression Humidité
    00:00 +18°C° 1.6 mm 4 m/s 761 mmHg 98%
    01:00 +18°C° 1.6 mm 4 m/s 760 mmHg 98%
    02:00 +18°C° 0.3 mm 4 m/s 760 mmHg 98%
    03:00 +18°C° 0.3 mm 4 m/s 760 mmHg 98%
    04:00 +18°C° 0.3 mm 4 m/s 760 mmHg 97%
    05:00 +18°C° 0.3 mm 4 m/s 760 mmHg 97%
    06:00 +18°C° 0.3 mm 4 m/s 760 mmHg 96%
    07:00 +19°C° 0.3 mm 5 m/s 761 mmHg 96%
    08:00 +17°C° 1 mm 5 m/s 761 mmHg 96%
    09:00 +17°C° 1 mm 5 m/s 761 mmHg 97%
    10:00 +17°C° 1 mm 5 m/s 760 mmHg 97%
    11:00 +17°C° 1.1 mm 5 m/s 760 mmHg 96%
    12:00 +17°C° 1.1 mm 6 m/s 760 mmHg 96%
    13:00 +17°C° 1.1 mm 6 m/s 760 mmHg 95%
    14:00 +17°C° 0.6 mm 6 m/s 760 mmHg 95%
    15:00 +16°C° 0.6 mm 5 m/s 759 mmHg 96%
    16:00 +16°C° 0.6 mm 5 m/s 759 mmHg 96%
    17:00 +16°C° 0.1 mm 5 m/s 760 mmHg 95%
    18:00 +15°C° 0.1 mm 5 m/s 760 mmHg 95%
    19:00 +15°C° 0.1 mm 5 m/s 761 mmHg 95%
    20:00 +15°C° 0 mm 4 m/s 761 mmHg 96%
    21:00 +14°C° 0 mm 4 m/s 761 mmHg 96%
    22:00 +14°C° 0 mm 4 m/s 761 mmHg 96%
    23:00 +13°C° 0 mm 3 m/s 761 mmHg 97%
    Voir plus